GW1347 Weather Reports


Display with metric or nautical units.
time (UTC)temp
F
wind
direction
speed
MPH
gust
MPH
rain 1hr
in
rain 24hr
in
rain mn
in
humidity
%
barometer
mb
20260903213231 98 267 2.0 11.0 0.00 0.00 0.00 47 1014.5
20260903212236 97 219 4.0 11.0 0.00 0.00 0.00 48 1014.6
20260903211211 97 195 3.0 8.0 0.00 0.00 0.00 46 1014.6
20260903210141 97 307 4.0 11.0 0.00 0.00 0.00 47 1014.8
20260903205157 97 286 3.0 11.0 0.00 0.00 0.00 48 1014.9
20260903204220 97 161 3.0 7.0 0.00 0.00 0.00 47 1015.0
20260903203228 98 266 4.0 10.0 0.00 0.00 0.00 48 1015.2
20260903202201 98 244 2.0 10.0 0.00 0.00 0.00 46 1015.2
20260903200041 97 226 6.0 11.0 0.00 0.00 0.00 47 1015.3
20260903195015 99 236 2.0 10.0 0.00 0.00 0.00 45 1015.6
20260903194035 98 279 1.0 4.0 0.00 0.00 0.00 47 1015.6
20260903191908 98 255 3.0 8.0 0.00 0.00 0.00 47 1015.9
20260903190931 98 247 2.0 7.0 0.00 0.00 0.00 47 1015.9
20260903185924 99 356 1.0 4.0 0.00 0.00 0.00 46 1015.8
20260903184930 99 291 1.0 11.0 0.00 0.00 0.00 46 1015.9
20260903183916 97 262 3.0 11.0 0.00 0.00 0.00 48 1016.0
20260903182858 97 226 3.0 10.0 0.00 0.00 0.00 49 1016.0
20260903181839 97 203 3.0 9.0 0.00 0.00 0.00 48 1016.0
20260903180829 97 25 2.0 10.0 0.00 0.00 0.00 47 1016.2
20260903175802 95 223 6.0 13.0 0.00 0.00 0.00 49 1016.2
20260903174748 95 233 6.0 13.0 0.00 0.00 0.00 51 1016.3
20260903173759 94 229 7.0 15.0 0.00 0.00 0.00 53 1016.4
20260903172751 94 235 6.0 15.0 0.00 0.00 0.00 52 1016.7
20260903171735 94 229 6.0 13.0 0.00 0.00 0.00 54 1016.8
20260903170800 94 243 4.0 11.0 0.00 0.00 0.00 56 1016.8
20260903165745 94 225 5.0 11.0 0.00 0.00 0.00 56 1017.0
20260903163635 93 39 5.0 10.0 0.00 0.00 0.00 56 1017.2
20260903161519 92 253 5.0 10.0 0.00 0.00 0.00 59 1017.4
20260903160538 92 228 4.0 10.0 0.00 0.00 0.00 57 1017.4
20260903154320 92 257 3.0 9.0 0.00 0.00 0.00 59 1017.5
20260903153257 92 244 3.0 9.0 0.00 0.00 0.00 60 1017.3
20260903152235 91 236 3.0 9.0 0.00 0.00 0.00 58 1017.4
20260903151239 92 266 1.0 3.0 0.00 0.00 0.00 60 1017.2
20260903150220 90 238 3.0 8.0 0.00 0.00 0.00 62 1017.2
20260903144050 88 188 3.0 6.0 0.00 0.00 0.00 67 1017.4
20260903143031 87 208 3.0 8.0 0.00 0.00 0.00 69 1017.3
20260903141957 86 216 4.0 8.0 0.00 0.00 0.00 71 1017.4
20260903141010 86 243 3.0 8.0 0.00 0.00 0.00 71 1017.5
20260903140005 85 226 3.0 8.0 0.00 0.00 0.00 72 1017.5
20260903134959 84 229 2.0 6.0 0.00 0.00 0.00 75 1017.5
20260903133935 85 167 1.0 4.0 0.00 0.00 0.00 73 1017.6
20260903132948 84 238 1.0 4.0 0.00 0.00 0.00 76 1017.6
20260903131954 83 223 1.0 4.0 0.00 0.00 0.00 77 1017.7
20260903130936 82 184 1.0 4.0 0.00 0.00 0.00 79 1017.8
20260903125910 81 207 1.0 4.0 0.00 0.00 0.00 80 1017.9
20260903124851 80 158 1.0 3.0 0.00 0.00 0.00 81 1017.9
20260903123911 80 309 1.0 3.0 0.00 0.00 0.00 82 1017.9
20260903122847 79 183 0.0 3.0 0.00 0.00 0.00 83 1017.9
20260903120730 78 150 0.0 2.0 0.00 0.00 0.00 86 1017.8
20260903115750 77 239 0.0 2.0 0.00 0.00 0.00 87 1017.7
20260903113553 76 103 0.0 0.0 0.00 0.00 0.00 89 1017.5
20260903112546 76 103 1.0 0.0 0.00 0.00 0.00 89 1017.5
20260903110438 76 240 1.0 4.0 0.00 0.00 0.00 89 1017.3
20260903104317 76 159 0.0 1.0 0.00 0.00 0.00 88 1017.1
20260903103330 76 243 0.0 3.0 0.00 0.00 0.00 89 1017.1
20260903102335 76 167 0.0 3.0 0.00 0.00 0.00 88 1016.9
20260903100216 76 193 0.0 0.0 0.00 0.00 0.00 88 1016.8
20260903095225 77 187 0.0 2.0 0.00 0.00 0.00 88 1016.8
20260903094237 76 190 0.0 2.0 0.00 0.00 0.00 88 1016.8
20260903093206 77 231 1.0 2.0 0.00 0.00 0.00 88 1016.9
20260903092136 77 245 0.0 2.0 0.00 0.00 0.00 87 1016.9
20260903090003 77 226 1.0 3.0 0.00 0.00 0.00 87 1016.9
20260903083812 78 238 1.0 3.0 0.00 0.00 0.00 85 1016.9
20260903082810 78 146 1.0 3.0 0.00 0.00 0.00 85 1016.9
20260903081823 78 150 1.0 3.0 0.00 0.00 0.00 84 1016.9
20260903080827 78 173 0.0 0.0 0.00 0.00 0.00 84 1016.9
20260903075836 78 164 0.0 0.0 0.00 0.00 0.00 84 1016.9
20260903074829 79 243 1.0 3.0 0.00 0.00 0.00 84 1016.7
20260903073812 78 245 1.0 3.0 0.00 0.00 0.00 84 1016.7
20260903072738 79 235 0.0 3.0 0.00 0.00 0.00 84 1016.5
20260903071725 79 218 1.0 1.0 0.00 0.00 0.00 84 1016.6
20260903070748 79 207 1.0 3.0 0.00 0.00 0.00 83 1016.6
20260903065751 79 282 0.0 0.0 0.00 0.00 0.00 85 1016.5
20260903064811 78 210 0.0 0.0 0.00 0.00 0.00 85 1016.6
20260903062618 79 210 0.0 0.0 0.00 0.00 0.00 84 1016.6
20260903055344 80 243 0.0 0.0 0.00 0.00 0.00 83 1016.5
20260903054324 80 243 0.0 0.0 0.00 0.00 0.00 83 1016.6
20260903053333 80 243 0.0 0.0 0.00 0.00 0.00 83 1016.5
20260903052347 80 243 0.0 0.0 0.00 0.00 0.00 83 1016.3
20260903051342 80 249 1.0 0.0 0.00 0.00 0.00 83 1016.4
20260903050402 80 228 0.0 3.0 0.00 0.00 0.00 83 1016.3
20260903044208 81 237 1.0 2.0 0.00 0.00 0.00 82 1016.1
20260903043145 81 237 0.0 1.0 0.00 0.00 0.00 82 1016.1
20260903042200 81 237 0.0 1.0 0.00 0.00 0.00 81 1016.1
20260903041158 82 245 0.0 0.0 0.00 0.00 0.00 79 1016.2
20260903040208 82 245 0.0 0.0 0.00 0.00 0.00 79 1016.1
20260903035212 82 237 0.0 0.0 0.00 0.00 0.00 78 1016.2
20260903034158 83 229 0.0 1.0 0.00 0.00 0.00 77 1016.2
20260903033211 83 214 0.0 0.0 0.00 0.00 0.00 77 1016.3
20260903031125 84 214 0.0 0.0 0.00 0.00 0.00 74 1016.3
20260903030056 85 214 0.0 3.0 0.00 0.00 0.00 72 1016.3
20260903025116 85 210 0.0 3.0 0.00 0.00 0.00 72 1016.2
20260903022937 85 170 1.0 3.0 0.00 0.00 0.00 71 1016.2
20260903021953 85 187 0.0 3.0 0.00 0.00 0.00 72 1016.2
20260903020936 85 216 0.0 0.0 0.00 0.00 0.00 73 1016.3
20260903015908 86 223 0.0 0.0 0.00 0.00 0.00 72 1016.3
20260903014933 86 179 0.0 1.0 0.00 0.00 0.00 71 1016.3
20260903013957 86 248 0.0 0.0 0.00 0.00 0.00 71 1016.3
20260903011851 87 210 0.0 0.0 0.00 0.00 0.00 68 1016.2
20260903010836 88 223 0.0 2.0 0.00 0.00 0.00 66 1016.1
20260903005852 89 191 1.0 4.0 0.00 0.00 0.00 65 1016.0
20260903004851 89 240 2.0 4.0 0.00 0.00 0.00 65 1016.0
20260903003855 90 229 1.0 4.0 0.00 0.00 0.00 63 1015.9
20260903002911 90 280 1.0 4.0 0.00 0.00 0.00 62 1015.8
20260903001842 90 240 1.0 4.0 0.00 0.00 0.00 63 1015.9
20260903000827 91 228 3.0 5.0 0.00 0.00 0.00 61 1015.8
20260902234646 92 17 3.0 8.0 0.00 0.00 0.00 58 1015.8
20260902233625 93 224 3.0 8.0 0.00 0.00 0.00 56 1015.8
20260902232632 94 186 2.0 5.0 0.00 0.00 0.00 57 1015.8
20260902231603 94 229 2.0 7.0 0.00 0.00 0.00 55 1015.8
20260902230622 95 226 3.0 7.0 0.00 0.00 0.00 53 1015.9
20260902224413 94 245 3.0 8.0 0.00 0.00 0.00 54 1016.0
20260902223355 95 242 4.0 9.0 0.00 0.00 0.00 53 1015.9
20260902222415 95 252 4.0 9.0 0.00 0.00 0.00 51 1015.9
20260902221428 95 249 4.0 11.0 0.00 0.00 0.00 52 1016.1
20260902215351 96 220 4.0 11.0 0.00 0.00 0.00 50 1016.1
20260902214324 95 314 4.0 11.0 0.00 0.00 0.00 50 1016.2